TimeEST,TemperatureF,Dew PointF,Humidity,Sea Level PressureIn,VisibilityMPH,Wind Direction,Wind SpeedMPH,Gust SpeedMPH,PrecipitationIn,Events,Conditions,WindDirDegrees,DateUTC
12:56 AM,27.0,21.0,78,30.01,8.0,Calm,Calm,-,N/A,,Clear,0,2012-12-24 05:56:00
1:56 AM,27.0,21.0,78,30.02,10.0,Calm,Calm,-,N/A,,Clear,0,2012-12-24 06:56:00
2:56 AM,26.1,21.9,84,30.04,10.0,Calm,Calm,-,N/A,,Clear,0,2012-12-24 07:56:00
3:56 AM,26.1,21.0,81,30.04,10.0,WSW,3.5,-,N/A,,Clear,250,2012-12-24 08:56:00
4:56 AM,24.1,19.0,81,30.05,10.0,Calm,Calm,-,N/A,,Clear,0,2012-12-24 09:56:00
5:56 AM,26.1,21.0,81,30.07,10.0,West,3.5,-,N/A,,Clear,260,2012-12-24 10:56:00
6:56 AM,23.0,19.9,88,30.09,9.0,Calm,Calm,-,N/A,,Clear,0,2012-12-24 11:56:00
7:56 AM,26.1,21.9,84,30.09,10.0,Calm,Calm,-,N/A,,Clear,0,2012-12-24 12:56:00
8:56 AM,28.0,25.0,88,30.08,8.0,Calm,Calm,-,N/A,,Clear,0,2012-12-24 13:56:00
9:56 AM,33.1,28.9,85,30.09,9.0,Calm,Calm,-,N/A,,Clear,0,2012-12-24 14:56:00
10:56 AM,36.0,25.0,64,30.09,10.0,ESE,4.6,-,N/A,,Clear,120,2012-12-24 15:56:00
11:56 AM,37.0,24.1,59,30.06,10.0,ESE,8.1,-,N/A,,Clear,110,2012-12-24 16:56:00
12:56 PM,39.9,24.1,53,30.04,10.0,ESE,12.7,-,N/A,,Clear,120,2012-12-24 17:56:00
1:56 PM,37.9,24.1,57,30.02,10.0,East,5.8,-,N/A,,Scattered Clouds,100,2012-12-24 18:56:00
2:56 PM,37.0,25.0,62,30.01,10.0,ESE,8.1,-,N/A,,Overcast,110,2012-12-24 19:56:00
3:46 PM,35.6,26.6,70,29.98,2.5,SSE,8.1,-,0.00,Snow,Light Snow,160,2012-12-24 20:46:00
3:56 PM,34.0,28.9,82,30.00,1.5,SE,10.4,-,0.00,Snow,Light Snow,140,2012-12-24 20:56:00
4:04 PM,33.8,28.4,81,29.98,0.8,ESE,5.8,-,0.00,Snow,Light Snow,110,2012-12-24 21:04:00
4:31 PM,33.8,30.2,87,29.97,0.5,ESE,8.1,-,0.00,Fog-Snow,Snow,110,2012-12-24 21:31:00
4:38 PM,33.8,30.2,87,29.97,0.8,ESE,6.9,-,0.00,Snow,Light Snow,110,2012-12-24 21:38:00
4:56 PM,32.0,30.9,96,29.97,0.8,East,8.1,-,0.00,Snow,Light Snow,100,2012-12-24 21:56:00
5:02 PM,32.0,30.2,93,29.95,1.0,East,9.2,-,0.01,Snow,Light Snow,100,2012-12-24 22:02:00
5:21 PM,32.0,30.2,93,29.95,0.8,East,6.9,-,0.02,Snow,Light Snow,100,2012-12-24 22:21:00
5:54 PM,32.0,30.2,93,29.95,0.8,East,4.6,-,0.06,Snow,Light Snow,100,2012-12-24 22:54:00
5:56 PM,32.0,30.9,96,29.97,0.8,East,4.6,-,0.06,Snow,Light Snow,90,2012-12-24 22:56:00
6:56 PM,32.0,30.9,96,29.96,1.0,East,6.9,-,0.05,Snow,Light Snow,100,2012-12-24 23:56:00
7:07 PM,32.0,30.2,93,29.94,1.5,East,6.9,-,0.00,Snow,Light Snow,100,2012-12-25 00:07:00
7:14 PM,32.0,30.2,93,29.94,2.0,East,4.6,-,0.00,Snow,Light Snow,100,2012-12-25 00:14:00
7:32 PM,32.0,30.2,93,29.94,3.0,ESE,6.9,-,0.00,,Overcast,110,2012-12-25 00:32:00
7:56 PM,32.0,30.9,96,29.95,4.0,ESE,8.1,-,0.00,,Overcast,110,2012-12-25 00:56:00
8:56 PM,33.1,30.9,92,29.94,3.0,East,6.9,-,N/A,,Overcast,90,2012-12-25 01:56:00
9:31 PM,33.8,30.2,87,29.92,2.0,East,4.6,-,0.01,Snow,Light Snow,90,2012-12-25 02:31:00
9:54 PM,33.8,30.2,87,29.92,3.0,East,4.6,-,0.01,,Overcast,100,2012-12-25 02:54:00
9:56 PM,33.1,30.9,92,29.94,3.0,East,4.6,-,0.01,,Overcast,100,2012-12-25 02:56:00
10:07 PM,33.8,30.2,87,29.92,2.5,East,5.8,-,0.00,Rain,Light Rain,90,2012-12-25 03:07:00
10:23 PM,33.8,30.2,87,29.91,2.0,East,4.6,-,0.00,Rain,Light Freezing Rain,100,2012-12-25 03:23:00
10:56 PM,33.1,32.0,96,29.93,1.8,Calm,Calm,-,0.00,Rain,Light Freezing Rain,0,2012-12-25 03:56:00
11:15 PM,33.8,32.0,93,29.91,2.0,Calm,Calm,-,0.00,,Overcast,0,2012-12-25 04:15:00
11:29 PM,33.8,32.0,93,29.91,1.8,Calm,Calm,-,0.00,,Overcast,0,2012-12-25 04:29:00
11:56 PM,33.1,32.0,96,29.93,1.5,Calm,Calm,-,0.00,,Overcast,0,2012-12-25 04:56:00